THOR ABLESTAR DEB, 330

Orbit data source: Space-Track

THOR ABLESTAR DEB, 330 is space debris in LEO originally from a launch on Thu, 29 Jun 1961 UTC launched from the Air Force Eastern Test Range (AFETR). Debris objects in space refer to the collection of defunct objects orbiting the Earth. Examples of debris include non-operational satellites, rocket bodies, and fragments generated from explosions, collisions, or faulty payload assembly.

Loading next visibility...
Identifier
330, 1961-015DG
Orbit
LEO
Country
Flag of USUS
Related business
Manufacturer
Unknown
Mission
Spacecraft
Bus & Motor
Unknown
Mass
Unknown
Launch date (UTC)
1961-06-29 (64 years ago)
Launch vehicle
Unknown
Launch site
Air Force Eastern Test Range (AFETR)
Object type
Payload
Rocket body
Debris
Shape & HBR
Unknown shape, 0.1 m
Radar Cross Section
Small (<0.1 m²)

Expand to show TLE details & history
Last TLE update: 19 hours ago

TLE from 19 hours ago
0 THOR ABLESTAR DEB
1 00330U 61015DG  25309.25405515  .00000833  00000-0  54495-3 0  9999
2 00330  66.9773 141.0509 0053916 283.6329  75.8759 14.06318085265216
Epoch: 2025-11-05T06:05Z
TLE epoch observation values (Epoch: 2025-11-05T06:05:50.364Z)
Latitude
0.00001°
Longitude
4.86169°
Altitude
864.762 km
Speed
7.425 km/s
True Right ascension
09h 24m 12s
True Declination
0° 00' 00"
Sunlit
Object was in daylight at epoch
Visualization orbit readout
Latitude
Unknown
Longitude
Unknown
Altitude
Unknown
Speed
Unknown
Apparent Right ascension
Unknown
Apparent Declination
Unknown
Sunlit
N/A
Visualization observer readout
Local Sidereal Time
21:27:42
Azimuth
Unknown
Elevation
Unknown
Doppler factor
Unknown
Orbital elements
Apogee altitude
909.441 km
Perigee altitude
831.279 km
Semi-major axis
7,248.497 km
Eccentricity
0.00539
Inclination
66.9773°
RAAN
141.0509°
Arg. of periapsis
283.6329°
True anomaly
76.47603°
Mean anomaly
75.8759°
Eccentric anomaly
76.17587°
Mean motion
3.51699 °/min
Orbital period
102.36 mins
BSTAR
0.00054495
Loading maneuver chart data...
Computing Atmospheric mass density...

Documentation

Showing up to 5 results
|